Stations météo

réclame
Mon MeteoGroup
Lossiemouth, Grande-Bretagne (3068): Température de l'air & dewpoint: 11.01.2019 00:00:00 - 17.01.2019 00:00:00 (GMT)Lossiemouth, Grande-Bretagne (3068): Vitesse du vent & gusts: 11.01.2019 00:00:00 - 17.01.2019 00:00:00 (GMT)Lossiemouth, Grande-Bretagne (3068): Direction du vent: 11.01.2019 00:00:00 - 17.01.2019 00:00:00 (GMT)Lossiemouth, Grande-Bretagne (3068): reduced air pressure: 11.01.2019 00:00:00 - 17.01.2019 00:00:00 (GMT)Lossiemouth, Grande-Bretagne (3068): visibility: 11.01.2019 00:00:00 - 17.01.2019 00:00:00 (GMT)Lossiemouth, Grande-Bretagne (3068): Quantités de précipitations: 11.01.2019 00:00:00 - 17.01.2019 00:00:00 (GMT)
Date & Time tt [°C] td [°C] ff [km/h] ff [knt] fx [km/h] fx [knt] dd ppp [hPa] vv [km] rr [mm]
17.01.2019 00:00:00 -0,1 -0,1 22 12 67 36 NW 1002,8 10 0,0
16.01.2019 23:00:00 1,8 -1,5 35 19 61 33 NNW 1002,4 10 0,0
16.01.2019 22:00:00 2,1 -1,6 39 21 63 34 NNW 1001,2 10 0,0
16.01.2019 21:00:00 2,6 -0,6 37 20 63 34 NNW 999,7 10 0,4
16.01.2019 20:00:00 2,3 0,8 50 27 63 34 N 998,5 12 0,2
16.01.2019 19:00:00 3,0 2,1 42 23 57 31 N 996,5 10 2,0
16.01.2019 18:00:00 3,7 2,2 35 19 48 26 NW 995,1 10 0,0
16.01.2019 17:00:00 4,1 2,6 34 18 - - WNW 994,4 10 0,0
16.01.2019 16:00:00 3,5 2,3 28 15 - - WNW 993,5 10 0,4
16.01.2019 15:00:00 3,7 2,2 16 9 - - NW 992,9 10 0,8
16.01.2019 14:00:00 3,2 2,3 8 4 - - W 992,1 10 0,4
16.01.2019 13:00:00 4,0 2,8 4 2 - - NW 991,9 10 0,4
16.01.2019 12:00:00 3,7 3,2 5 3 - - N 992,0 4,0 1,2
16.01.2019 11:00:00 3,9 3,2 5 3 - - NNW 992,0 10 0,2
16.01.2019 10:00:00 3,9 3,5 11 6 - - WNW 992,1 10 0,8
16.01.2019 09:00:00 3,6 3,0 13 7 - - WSW 992,2 4,5 0,8
16.01.2019 08:00:00 4,4 3,4 16 9 - - WSW 991,8 30 0,4
16.01.2019 07:00:00 5,2 4,1 18 10 - - WSW 991,9 10 0,0
16.01.2019 06:00:00 5,8 4,3 21 11 - - WSW 992,1 10 0,0
16.01.2019 05:00:00 6,5 3,9 21 11 - - W 992,5 10 0,0
16.01.2019 04:00:00 6,8 4,2 18 10 - - WSW 992,7 50 0,0
16.01.2019 03:00:00 7,4 4,3 21 11 - - W 993,0 10 0,0
16.01.2019 02:00:00 7,8 4,4 24 13 48 26 WSW 993,1 40 0,0
16.01.2019 01:00:00 8,4 4,7 35 19 50 27 WSW 993,1 10 0,2
16.01.2019 00:00:00 8,8 7,8 26 14 52 28 WSW 993,0 10 0,2
15.01.2019 23:00:00 10,1 6,5 28 15 - - SW 992,9 10 0,2
15.01.2019 22:00:00 9,5 6,1 21 11 - - SW 994,2 10 0,0
15.01.2019 21:00:00 9,1 5,9 22 12 - - SW 995,2 10 0,0
15.01.2019 20:00:00 9,2 5,8 29 16 46 25 WSW 996,3 45 0,0
15.01.2019 19:00:00 8,6 5,6 26 14 - - WSW 997,4 10 0,0
15.01.2019 18:00:00 8,0 5,1 21 11 - - SW 998,5 10 0,0
15.01.2019 17:00:00 8,9 6,8 22 12 - - WSW 999,8 10 0,0
15.01.2019 16:00:00 8,6 7,7 16 9 - - SW 1000,5 10 0,0
15.01.2019 15:00:00 7,3 7,1 13 7 - - SSE 1001,1 10 0,0
15.01.2019 14:00:00 7,5 7,2 8 4 - - ESE 1002,2 8 1,4
15.01.2019 13:00:00 7,1 6,6 4 2 - - SSE 1003,1 3,5 1,0
15.01.2019 12:00:00 7,6 6,7 5 3 - - WSW 1003,9 4,0 0,0
15.01.2019 11:00:00 7,7 6,0 11 6 - - SW 1004,9 10 0,0
15.01.2019 10:00:00 7,5 6,1 13 7 - - WNW 1005,3 10 0,2
15.01.2019 09:00:00 7,7 6,0 15 8 - - WNW 1005,6 10 0,2
15.01.2019 08:00:00 8,3 6,3 11 6 - - W 1005,2 10 0,0
15.01.2019 07:00:00 8,0 5,9 18 10 - - WNW 1005,1 10 0,0
15.01.2019 06:00:00 8,1 5,8 37 20 55 30 WNW 1005,0 10 0,0
15.01.2019 05:00:00 8,3 7,2 35 19 48 26 W 1005,2 4,2 0,2
15.01.2019 04:00:00 9,6 7,3 31 17 48 26 WSW 1004,6 40 0,0
15.01.2019 03:00:00 9,6 7,1 31 17 - - WSW 1005,0 10 0,0
15.01.2019 02:00:00 8,7 6,5 26 14 - - WSW 1005,5 20 0,0
15.01.2019 01:00:00 8,3 5,6 24 13 - - WSW 1006,3 10 0,0
15.01.2019 00:00:00 8,4 5,6 24 13 - - WSW 1007,5 10 0,0
14.01.2019 23:00:00 7,5 5,1 21 11 - - WSW 1008,0 10 0,0
14.01.2019 22:00:00 6,4 4,0 18 10 - - WSW 1009,0 10 0,0
14.01.2019 21:00:00 6,1 3,3 13 7 - - SW 1010,1 10 0,0
14.01.2019 20:00:00 6,1 3,6 22 12 - - WSW 1011,1 10 0,0
14.01.2019 19:00:00 4,9 2,6 21 11 - - WSW 1012,0 10 0,0
14.01.2019 18:00:00 4,7 2,3 15 8 - - WSW 1012,9 10 0,0
14.01.2019 17:00:00 5,5 2,4 24 13 - - WSW 1013,3 10 0,0
14.01.2019 16:00:00 5,1 2,4 18 10 - - WSW 1013,9 10 0,0
14.01.2019 15:00:00 4,9 2,2 29 16 - - W 1014,2 10 0,0
14.01.2019 14:00:00 5,0 1,6 28 15 - - WSW 1014,4 10 0,0
14.01.2019 13:00:00 4,3 0,9 22 12 - - WSW 1014,9 10 0,0
14.01.2019 12:00:00 3,8 0,5 11 6 - - SSW 1015,5 10 0,0
14.01.2019 11:00:00 2,1 0,2 9 5 - - SW 1016,3 10 0,0
14.01.2019 10:00:00 0,8 -0,6 18 10 - - WSW 1017,0 10 0,0
14.01.2019 09:00:00 -0,4 -1,1 16 9 - - WSW 1017,2 10 0,0
14.01.2019 08:00:00 -0,4 -1,0 16 9 - - WSW 1017,1 10 0,0
14.01.2019 07:00:00 -0,1 -1,8 15 8 - - WSW 1016,7 10 0,0
14.01.2019 06:00:00 2,3 -0,2 16 9 - - WNW 1016,6 10 0,0
14.01.2019 05:00:00 3,1 0,3 18 10 - - NW 1016,4 10 0,0
14.01.2019 04:00:00 3,1 0,1 18 10 - - NW 1016,0 10 0,0
14.01.2019 03:00:00 2,9 0,0 16 9 - - NW 1015,6 10 0,0
14.01.2019 02:00:00 3,1 -0,2 21 11 - - NNW 1015,1 25 0,0
14.01.2019 01:00:00 3,4 1,1 22 12 - - N 1014,4 10 0,0
14.01.2019 00:00:00 3,4 1,7 22 12 - - NNE 1013,0 10 0,0
13.01.2019 23:00:00 3,6 1,5 26 14 - - NNE 1012,0 5 0,0
13.01.2019 22:00:00 3,9 2,2 26 14 - - NE 1010,8 15 0,4
13.01.2019 21:00:00 4,5 3,2 26 14 - - NE 1008,9 5 0,8
13.01.2019 20:00:00 6,2 4,2 31 17 - - WNW 1006,5 6 0,4
13.01.2019 19:00:00 6,4 4,3 34 18 - - WNW 1005,2 10 0,0
13.01.2019 18:00:00 6,5 4,1 26 14 48 26 W 1004,2 10 0,0
13.01.2019 17:00:00 5,8 3,5 37 20 54 29 W 1003,2 10 0,0
13.01.2019 16:00:00 6,4 4,1 35 19 63 34 WNW 1002,7 10 0,4
13.01.2019 15:00:00 7,3 4,1 41 22 59 32 WNW 1002,1 10 0,0
13.01.2019 14:00:00 7,1 4,1 29 16 52 28 W 1001,9 10 0,0
13.01.2019 13:00:00 7,3 3,8 35 19 63 34 W 1001,7 10 0,0
13.01.2019 12:00:00 7,3 4,9 29 16 55 30 W 1001,5 10 0,0
13.01.2019 11:00:00 7,0 4,4 37 20 63 34 W 1001,5 10 0,0
13.01.2019 10:00:00 7,9 4,5 37 20 59 32 W 1001,2 10 0,0
13.01.2019 09:00:00 7,7 4,2 52 28 72 39 WNW 1000,9 10 0,0
13.01.2019 08:00:00 8,3 4,7 35 19 76 41 W 1000,8 10 0,0
13.01.2019 07:00:00 9,2 4,7 50 27 72 39 W 1000,6 10 0,0
13.01.2019 06:00:00 9,4 6,2 26 14 52 28 W 1000,8 10 0,0
13.01.2019 05:00:00 10,5 7,8 37 20 55 30 W 1000,7 10 0,0
13.01.2019 04:00:00 10,4 8,0 42 23 61 33 WSW 1001,4 10 0,0
13.01.2019 03:00:00 10,3 8,5 39 21 55 30 WSW 1002,4 10 0,0
13.01.2019 02:00:00 10,0 8,5 39 21 57 31 W 1003,1 10 0,2
13.01.2019 01:00:00 9,9 8,7 41 22 61 33 WSW 1003,4 10 1,2
13.01.2019 00:00:00 10,2 8,3 42 23 61 33 W 1004,2 10 0,0
12.01.2019 23:00:00 10,4 8,2 42 23 63 34 W 1004,3 10 0,2
12.01.2019 22:00:00 10,5 8,1 39 21 57 31 W 1005,4 10 0,2
12.01.2019 21:00:00 10,5 8,1 35 19 50 27 WSW 1005,8 10 0,2
12.01.2019 20:00:00 9,9 8,4 35 19 52 28 W 1007,1 30 0,6
12.01.2019 19:00:00 9,6 8,4 29 16 - - W 1007,4 7 1,0
12.01.2019 18:00:00 9,2 8,2 28 15 - - W 1008,0 7 1,2
12.01.2019 17:00:00 9,1 7,6 24 13 - - W 1008,5 10 0,4
12.01.2019 16:00:00 8,7 7,4 28 15 50 27 W 1008,8 4,0 0,2
12.01.2019 15:00:00 8,7 6,1 35 19 50 27 W 1008,4 10 0,0
12.01.2019 14:00:00 8,1 5,9 34 18 52 28 W 1009,2 10 0,0
12.01.2019 13:00:00 8,5 5,1 28 15 55 30 W 1010,0 40 0,0
12.01.2019 12:00:00 8,7 5,3 35 19 50 27 W 1010,3 10 0,0
12.01.2019 11:00:00 8,6 4,6 31 17 54 29 W 1010,6 10 0,0
12.01.2019 10:00:00 8,1 4,8 37 20 59 32 W 1011,2 10 0,0
12.01.2019 09:00:00 7,9 4,5 34 18 50 27 W 1011,4 10 0,0
12.01.2019 08:00:00 7,6 4,5 28 15 54 29 W 1011,7 20 0,0
12.01.2019 07:00:00 6,9 4,9 21 11 50 27 W 1011,7 10 0,0
12.01.2019 06:00:00 6,8 4,6 26 14 - - W 1011,9 10 0,0
12.01.2019 05:00:00 7,2 4,7 24 13 - - W 1012,2 10 0,0
12.01.2019 04:00:00 7,0 4,9 24 13 - - W 1012,5 10 0,2
12.01.2019 03:00:00 7,5 4,7 29 16 46 25 W 1012,9 10 0,0
12.01.2019 02:00:00 7,6 5,0 35 19 59 32 W 1012,9 10 0,0
12.01.2019 01:00:00 7,9 4,6 34 18 50 27 W 1013,5 10 0,0
12.01.2019 00:00:00 8,3 6,5 29 16 48 26 W 1014,0 10 0,4
11.01.2019 23:00:00 7,7 4,8 21 11 - - SW 1014,1 10 0,0
11.01.2019 22:00:00 7,6 4,3 18 10 - - SW 1015,8 10 0,0
11.01.2019 21:00:00 7,8 5,2 16 9 - - SW 1018,0 10 0,0
11.01.2019 20:00:00 8,2 5,4 16 9 - - SW 1019,8 40 0,0
11.01.2019 19:00:00 8,1 5,5 15 8 - - SW 1021,1 40 0,0
11.01.2019 18:00:00 7,9 5,2 11 6 - - SW 1022,0 10 0,0
11.01.2019 17:00:00 7,7 5,5 11 6 - - SW 1023,2 10 0,0
11.01.2019 16:00:00 7,8 6,3 11 6 - - W 1024,1 22 0,0
11.01.2019 15:00:00 8,4 6,3 15 8 - - W 1024,7 10 0,0
11.01.2019 14:00:00 8,5 5,8 15 8 - - W 1025,3 10 0,0
11.01.2019 13:00:00 8,3 6,1 15 8 - - WSW 1026,0 10 0,0
11.01.2019 12:00:00 7,8 6,6 16 9 - - WSW 1026,9 10 0,0
11.01.2019 11:00:00 7,5 6,6 18 10 - - W 1027,8 10 0,0
11.01.2019 10:00:00 7,4 6,2 24 13 - - W 1028,0 10 0,0
11.01.2019 09:00:00 8,1 5,0 21 11 - - W 1027,8 10 0,0
11.01.2019 08:00:00 7,8 5,3 21 11 - - W 1028,1 10 0,0
11.01.2019 07:00:00 8,1 4,5 15 8 - - W 1028,0 10 0,0
11.01.2019 06:00:00 7,6 4,4 21 11 - - W 1027,9 10 0,0
11.01.2019 05:00:00 7,7 5,5 18 10 - - W 1028,7 10 0,0
11.01.2019 04:00:00 8,1 4,8 28 15 - - W 1029,0 10 0,0
11.01.2019 03:00:00 7,8 5,5 28 15 - - W 1029,0 10 0,0
11.01.2019 02:00:00 8,4 4,9 21 11 - - W 1028,6 10 0,0
11.01.2019 01:00:00 8,3 5,3 21 11 - - W 1028,6 10 0,0
11.01.2019 00:00:00 8,7 4,9 21 11 - - W 1028,4 10 0,0

tt = Température de l'air
td = dewpoint
ff = Vitesse du vent
fx = gusts
dd = Direction du vent
ppp = reduced air pressure
vv = visibility
rr = Quantités de précipitations

stations d'obs. à proximité